Year,Month,Day,Hour,Minute,Value (Times are PST for barometer in hPa)
2017,04,07,00,00,995.56
2017,04,07,00,01,995.53
2017,04,07,00,02,995.56
2017,04,07,00,03,995.56
2017,04,07,00,04,995.63
2017,04,07,00,05,995.60
2017,04,07,00,06,995.56
2017,04,07,00,07,995.63
2017,04,07,00,08,995.56
2017,04,07,00,09,995.60
2017,04,07,00,10,995.53
2017,04,07,00,11,995.53
2017,04,07,00,12,995.50
2017,04,07,00,13,995.40
2017,04,07,00,14,995.33
2017,04,07,00,15,995.33
2017,04,07,00,16,995.36
2017,04,07,00,17,995.36
2017,04,07,00,18,995.33
2017,04,07,00,19,995.33
2017,04,07,00,20,995.29
2017,04,07,00,21,995.29
2017,04,07,00,22,995.26
2017,04,07,00,23,995.26
2017,04,07,00,24,995.23
2017,04,07,00,25,995.19
2017,04,07,00,26,995.23
2017,04,07,00,27,995.19
2017,04,07,00,28,995.16
2017,04,07,00,29,995.12
2017,04,07,00,30,995.12
2017,04,07,00,31,995.09
2017,04,07,00,32,994.99
2017,04,07,00,33,994.96
2017,04,07,00,34,994.96
2017,04,07,00,35,994.85
2017,04,07,00,36,994.85
2017,04,07,00,37,994.82
2017,04,07,00,38,994.92
2017,04,07,00,39,994.92
2017,04,07,00,40,994.96
2017,04,07,00,41,994.85
2017,04,07,00,42,994.79
2017,04,07,00,43,994.75
2017,04,07,00,44,994.68
2017,04,07,00,45,994.65
2017,04,07,00,46,994.62
2017,04,07,00,47,994.55
2017,04,07,00,48,994.48
2017,04,07,00,49,994.48
2017,04,07,00,50,994.48
2017,04,07,00,51,994.48
2017,04,07,00,52,994.45
2017,04,07,00,53,994.52
2017,04,07,00,54,994.48
2017,04,07,00,55,994.52
2017,04,07,00,56,994.48
2017,04,07,00,57,994.47
2017,04,07,00,58,994.38
2017,04,07,00,59,994.28
2017,04,07,01,00,994.21
2017,04,07,01,01,994.21
2017,04,07,01,02,994.21
2017,04,07,01,03,994.23
2017,04,07,01,04,994.14
2017,04,07,01,05,994.14
2017,04,07,01,06,994.07
2017,04,07,01,07,994.07
2017,04,07,01,08,994.04
2017,04,07,01,09,994.04
2017,04,07,01,10,994.01
2017,04,07,01,11,993.97
2017,04,07,01,12,993.97
2017,04,07,01,13,993.93
2017,04,07,01,14,993.77
2017,04,07,01,15,993.77
2017,04,07,01,16,993.80
2017,04,07,01,17,993.74
2017,04,07,01,18,993.70
2017,04,07,01,19,993.70
2017,04,07,01,20,993.60
2017,04,07,01,21,993.53
2017,04,07,01,22,993.53
2017,04,07,01,23,993.50
2017,04,07,01,24,993.36
2017,04,07,01,25,993.36
2017,04,07,01,26,993.26
2017,04,07,01,27,993.23
2017,04,07,01,28,993.26
2017,04,07,01,29,993.23
2017,04,07,01,30,993.23
2017,04,07,01,31,993.19
2017,04,07,01,32,993.16
2017,04,07,01,33,993.23
2017,04,07,01,34,993.19
2017,04,07,01,35,993.16
2017,04,07,01,36,993.16
2017,04,07,01,37,993.09
2017,04,07,01,38,993.13
2017,04,07,01,39,992.99
2017,04,07,01,40,992.99
2017,04,07,01,41,992.92
2017,04,07,01,42,992.92
2017,04,07,01,43,992.82
2017,04,07,01,44,992.79
2017,04,07,01,45,992.75
2017,04,07,01,46,992.72
2017,04,07,01,47,992.65
2017,04,07,01,48,992.55
2017,04,07,01,49,992.52
2017,04,07,01,50,992.48
2017,04,07,01,51,992.45
2017,04,07,01,52,992.42
2017,04,07,01,53,992.38
2017,04,07,01,54,992.38
2017,04,07,01,55,992.31
2017,04,07,01,56,992.28
2017,04,07,01,57,992.28
2017,04,07,01,58,992.25
2017,04,07,01,59,992.25
2017,04,07,02,00,992.18
2017,04,07,02,01,992.11
2017,04,07,02,02,992.08
2017,04,07,02,03,992.04
2017,04,07,02,04,992.01
2017,04,07,02,05,991.98
2017,04,07,02,06,991.87
2017,04,07,02,07,991.80
2017,04,07,02,08,991.67
2017,04,07,02,09,991.67
2017,04,07,02,10,991.64
2017,04,07,02,11,991.57
2017,04,07,02,12,991.53
2017,04,07,02,13,991.46
2017,04,07,02,14,991.33
2017,04,07,02,15,991.33
2017,04,07,02,16,991.33
2017,04,07,02,17,991.26
2017,04,07,02,18,991.26
2017,04,07,02,19,991.33
2017,04,07,02,20,991.38
2017,04,07,02,21,991.47
2017,04,07,02,22,991.53
2017,04,07,02,23,991.57
2017,04,07,02,24,991.57
2017,04,07,02,25,991.60
2017,04,07,02,26,991.53
2017,04,07,02,27,991.43
2017,04,07,02,28,991.30
2017,04,07,02,29,991.23
2017,04,07,02,30,991.16
2017,04,07,02,31,991.09
2017,04,07,02,32,991.06
2017,04,07,02,33,990.99
2017,04,07,02,34,990.93
2017,04,07,02,35,990.89
2017,04,07,02,36,990.79
2017,04,07,02,37,990.72
2017,04,07,02,38,990.62
2017,04,07,02,39,990.55
2017,04,07,02,40,990.49
2017,04,07,02,41,990.59
2017,04,07,02,42,990.59
2017,04,07,02,43,990.62
2017,04,07,02,44,990.59
2017,04,07,02,45,990.49
2017,04,07,02,46,990.45
2017,04,07,02,47,990.38
2017,04,07,02,48,990.25
2017,04,07,02,49,990.15
2017,04,07,02,50,990.01
2017,04,07,02,51,989.93
2017,04,07,02,52,989.84
2017,04,07,02,53,989.81
2017,04,07,02,54,989.81
2017,04,07,02,55,989.77
2017,04,07,02,56,989.81
2017,04,07,02,57,989.77
2017,04,07,02,58,989.81
2017,04,07,02,59,989.84
2017,04,07,03,00,989.67
2017,04,07,03,01,989.60
2017,04,07,03,02,989.54
2017,04,07,03,03,989.50
2017,04,07,03,04,989.47
2017,04,07,03,05,989.40
2017,04,07,03,06,989.33
2017,04,07,03,07,989.33
2017,04,07,03,08,989.27
2017,04,07,03,09,989.23
2017,04,07,03,10,989.23
2017,04,07,03,11,989.16
2017,04,07,03,12,989.20
2017,04,07,03,13,989.16
2017,04,07,03,14,989.09
2017,04,07,03,15,989.00
2017,04,07,03,16,988.93
2017,04,07,03,17,988.89
2017,04,07,03,18,988.86
2017,04,07,03,19,988.79
2017,04,07,03,20,988.79
2017,04,07,03,21,988.83
2017,04,07,03,22,988.86
2017,04,07,03,23,988.86
2017,04,07,03,24,988.89
2017,04,07,03,25,988.79
2017,04,07,03,26,988.79
2017,04,07,03,27,988.79
2017,04,07,03,28,988.76
2017,04,07,03,29,988.69
2017,04,07,03,30,988.76
2017,04,07,03,31,988.83
2017,04,07,03,32,988.96
2017,04,07,03,33,988.86
2017,04,07,03,34,988.76
2017,04,07,03,35,988.79
2017,04,07,03,36,988.83
2017,04,07,03,37,988.79
2017,04,07,03,38,988.76
2017,04,07,03,39,988.72
2017,04,07,03,40,988.79
2017,04,07,03,41,988.72
2017,04,07,03,42,988.76
2017,04,07,03,43,988.89
2017,04,07,03,44,989.00
2017,04,07,03,45,988.93
2017,04,07,03,46,988.76
2017,04,07,03,47,988.72
2017,04,07,03,48,988.69
2017,04,07,03,49,988.72
2017,04,07,03,50,988.69
2017,04,07,03,51,988.83
2017,04,07,03,52,989.01
2017,04,07,03,53,989.13
2017,04,07,03,54,989.20
2017,04,07,03,55,989.30
2017,04,07,03,56,989.33
2017,04,07,03,57,989.40
2017,04,07,03,58,989.37
2017,04,07,03,59,989.33
2017,04,07,04,00,989.23
2017,04,07,04,01,989.20
2017,04,07,04,02,989.13
2017,04,07,04,03,989.10
2017,04,07,04,04,989.06
2017,04,07,04,05,989.13
2017,04,07,04,06,989.20
2017,04,07,04,07,989.20
2017,04,07,04,08,989.27
2017,04,07,04,09,989.27
2017,04,07,04,10,989.23
2017,04,07,04,11,989.30
2017,04,07,04,12,989.33
2017,04,07,04,13,989.27
2017,04,07,04,14,989.20
2017,04,07,04,15,989.20
2017,04,07,04,16,989.10
2017,04,07,04,17,989.13
2017,04,07,04,18,989.10
2017,04,07,04,19,989.10
2017,04,07,04,20,989.16
2017,04,07,04,21,989.16
2017,04,07,04,22,989.20
2017,04,07,04,23,989.27
2017,04,07,04,24,989.30
2017,04,07,04,25,989.30
2017,04,07,04,26,989.40
2017,04,07,04,27,989.47
2017,04,07,04,28,989.50
2017,04,07,04,29,989.54
2017,04,07,04,30,989.57
2017,04,07,04,31,989.60
2017,04,07,04,32,989.54
2017,04,07,04,33,989.60
2017,04,07,04,34,989.60
2017,04,07,04,35,989.71
2017,04,07,04,36,989.74
2017,04,07,04,37,989.81
2017,04,07,04,38,989.81
2017,04,07,04,39,989.84
2017,04,07,04,40,989.84
2017,04,07,04,41,989.91
2017,04,07,04,42,989.91
2017,04,07,04,43,989.94
2017,04,07,04,44,989.94
2017,04,07,04,45,989.88
2017,04,07,04,46,989.81
2017,04,07,04,47,989.81
2017,04,07,04,48,989.88
2017,04,07,04,49,989.91
2017,04,07,04,50,989.91
2017,04,07,04,51,989.91
2017,04,07,04,52,989.91
2017,04,07,04,53,989.84
2017,04,07,04,54,989.84
2017,04,07,04,55,989.81
2017,04,07,04,56,989.77
2017,04,07,04,57,989.67
2017,04,07,04,58,989.67
2017,04,07,04,59,989.67
2017,04,07,05,00,989.67
2017,04,07,05,01,989.71
2017,04,07,05,02,989.67
2017,04,07,05,03,989.67
2017,04,07,05,04,989.71
2017,04,07,05,05,989.71
2017,04,07,05,06,989.64
2017,04,07,05,07,989.57
2017,04,07,05,08,989.54
2017,04,07,05,09,989.54
2017,04,07,05,10,989.54
2017,04,07,05,11,989.60
2017,04,07,05,12,989.68
2017,04,07,05,13,989.81
2017,04,07,05,14,989.88
2017,04,07,05,15,990.01
2017,04,07,05,16,990.04
2017,04,07,05,17,990.04
2017,04,07,05,18,989.94
2017,04,07,05,19,989.84
2017,04,07,05,20,989.84
2017,04,07,05,21,989.81
2017,04,07,05,22,989.88
2017,04,07,05,23,989.88
2017,04,07,05,24,989.88
2017,04,07,05,25,989.91
2017,04,07,05,26,989.84
2017,04,07,05,27,989.88
2017,04,07,05,28,989.81
2017,04,07,05,29,989.77
2017,04,07,05,30,989.77
2017,04,07,05,31,989.77
2017,04,07,05,32,989.67
2017,04,07,05,33,989.57
2017,04,07,05,34,989.60
2017,04,07,05,35,989.71
2017,04,07,05,36,989.74
2017,04,07,05,37,989.71
2017,04,07,05,38,989.57
2017,04,07,05,39,989.67
2017,04,07,05,40,989.71
2017,04,07,05,41,989.62
2017,04,07,05,42,989.33
2017,04,07,05,43,989.30
2017,04,07,05,44,989.30
2017,04,07,05,45,989.20
2017,04,07,05,46,989.20
2017,04,07,05,47,989.16
2017,04,07,05,48,989.06
2017,04,07,05,49,988.96
2017,04,07,05,50,989.00
2017,04,07,05,51,988.96
2017,04,07,05,52,988.86
2017,04,07,05,53,988.86
2017,04,07,05,54,988.83
2017,04,07,05,55,989.01
2017,04,07,05,56,989.10
2017,04,07,05,57,989.05
2017,04,07,05,58,988.89
2017,04,07,05,59,988.86
2017,04,07,06,00,988.89
2017,04,07,06,01,988.86
2017,04,07,06,02,988.72
2017,04,07,06,03,988.79
2017,04,07,06,04,988.89
2017,04,07,06,05,988.86
2017,04,07,06,06,988.83
2017,04,07,06,07,988.89
2017,04,07,06,08,988.93
2017,04,07,06,09,988.89
2017,04,07,06,10,988.83
2017,04,07,06,11,988.79
2017,04,07,06,12,988.76
2017,04,07,06,13,988.79
2017,04,07,06,14,988.89
2017,04,07,06,15,988.89
2017,04,07,06,16,988.93
2017,04,07,06,17,989.10
2017,04,07,06,18,989.06
2017,04,07,06,19,989.23
2017,04,07,06,20,989.23
2017,04,07,06,21,989.30
2017,04,07,06,22,989.30
2017,04,07,06,23,989.33
2017,04,07,06,24,989.40
2017,04,07,06,25,989.51
2017,04,07,06,26,989.60
2017,04,07,06,27,989.60
2017,04,07,06,28,989.67
2017,04,07,06,29,989.60
2017,04,07,06,30,989.71
2017,04,07,06,31,989.77
2017,04,07,06,32,989.77
2017,04,07,06,33,989.84
2017,04,07,06,34,989.77
2017,04,07,06,35,989.91
2017,04,07,06,36,990.08
2017,04,07,06,37,990.11
2017,04,07,06,38,990.21
2017,04,07,06,39,990.35
2017,04,07,06,40,989.98
2017,04,07,06,41,990.01
2017,04,07,06,42,990.08
2017,04,07,06,43,990.18
2017,04,07,06,44,990.33
2017,04,07,06,45,990.42
2017,04,07,06,46,990.38
2017,04,07,06,47,990.42
2017,04,07,06,48,990.42
2017,04,07,06,49,990.34
2017,04,07,06,50,990.15
2017,04,07,06,51,990.15
2017,04,07,06,52,990.21
2017,04,07,06,53,990.21
2017,04,07,06,54,990.18
2017,04,07,06,55,990.11
2017,04,07,06,56,990.08
2017,04,07,06,57,989.98
2017,04,07,06,58,989.91
2017,04,07,06,59,989.84
2017,04,07,07,00,989.81
2017,04,07,07,01,989.81
2017,04,07,07,02,989.81
2017,04,07,07,03,989.81
2017,04,07,07,04,989.84
2017,04,07,07,05,989.84
2017,04,07,07,06,989.91
2017,04,07,07,07,989.91
2017,04,07,07,08,989.91
2017,04,07,07,09,989.91
2017,04,07,07,10,989.84
2017,04,07,07,11,989.77
2017,04,07,07,12,989.71
2017,04,07,07,13,989.64
2017,04,07,07,14,989.64
2017,04,07,07,15,989.64
2017,04,07,07,16,989.64
2017,04,07,07,17,989.68
2017,04,07,07,18,989.81
2017,04,07,07,19,989.77
2017,04,07,07,20,989.71
2017,04,07,07,21,989.74
2017,04,07,07,22,989.64
2017,04,07,07,23,989.57
2017,04,07,07,24,989.47
2017,04,07,07,25,989.47
2017,04,07,07,26,989.40
2017,04,07,07,27,989.47
2017,04,07,07,28,989.40
2017,04,07,07,29,989.37
2017,04,07,07,30,989.33
2017,04,07,07,31,989.30
2017,04,07,07,32,989.27
2017,04,07,07,33,989.23
2017,04,07,07,34,989.27
2017,04,07,07,35,989.20
2017,04,07,07,36,989.27
2017,04,07,07,37,989.30
2017,04,07,07,38,989.30
2017,04,07,07,39,989.30
2017,04,07,07,40,989.30
2017,04,07,07,41,989.33
2017,04,07,07,42,989.27
2017,04,07,07,43,989.30
2017,04,07,07,44,989.30
2017,04,07,07,45,989.33
2017,04,07,07,46,989.33
2017,04,07,07,47,989.37
2017,04,07,07,48,989.33
2017,04,07,07,49,989.37
2017,04,07,07,50,989.27
2017,04,07,07,51,989.20
2017,04,07,07,52,989.33
2017,04,07,07,53,989.37
2017,04,07,07,54,989.30
2017,04,07,07,55,989.30
2017,04,07,07,56,989.23
2017,04,07,07,57,989.23
2017,04,07,07,58,989.16
2017,04,07,07,59,989.16
2017,04,07,08,00,989.13
2017,04,07,08,01,989.10
2017,04,07,08,02,989.03
2017,04,07,08,03,989.00
2017,04,07,08,04,989.03
2017,04,07,08,05,989.06
2017,04,07,08,06,989.06
2017,04,07,08,07,989.06
2017,04,07,08,08,989.10
2017,04,07,08,09,989.10
2017,04,07,08,10,989.06
2017,04,07,08,11,989.10
2017,04,07,08,12,989.03
2017,04,07,08,13,989.06
2017,04,07,08,14,989.03
2017,04,07,08,15,989.03
2017,04,07,08,16,989.03
2017,04,07,08,17,989.03
2017,04,07,08,18,989.00
2017,04,07,08,19,988.96
2017,04,07,08,20,988.86
2017,04,07,08,21,988.89
2017,04,07,08,22,988.93
2017,04,07,08,23,988.93
2017,04,07,08,24,988.89
2017,04,07,08,25,988.89
2017,04,07,08,26,988.86
2017,04,07,08,27,988.83
2017,04,07,08,28,988.83
2017,04,07,08,29,988.83
2017,04,07,08,30,988.83
2017,04,07,08,31,988.89
2017,04,07,08,32,988.89
2017,04,07,08,33,988.83
2017,04,07,08,34,988.79
2017,04,07,08,35,988.76
2017,04,07,08,36,988.73
2017,04,07,08,37,988.89
2017,04,07,08,38,988.83
2017,04,07,08,39,988.79
2017,04,07,08,40,988.79
2017,04,07,08,41,988.76
2017,04,07,08,42,988.72
2017,04,07,08,43,988.69
2017,04,07,08,44,988.52
2017,04,07,08,45,988.69
2017,04,07,08,46,988.72
2017,04,07,08,47,988.66
2017,04,07,08,48,988.59
2017,04,07,08,49,988.72
2017,04,07,08,50,988.66
2017,04,07,08,51,988.69
2017,04,07,08,52,988.69
2017,04,07,08,53,988.66
2017,04,07,08,54,988.69
2017,04,07,08,55,988.72
2017,04,07,08,56,988.66
2017,04,07,08,57,988.69
2017,04,07,08,58,988.66
2017,04,07,08,59,988.49
2017,04,07,09,00,988.55
2017,04,07,09,01,988.52
2017,04,07,09,02,988.55
2017,04,07,09,03,988.55
2017,04,07,09,04,988.59
2017,04,07,09,05,988.62
2017,04,07,09,06,988.62
2017,04,07,09,07,988.72
2017,04,07,09,08,988.69
2017,04,07,09,09,988.69
2017,04,07,09,10,988.72
2017,04,07,09,11,988.79
2017,04,07,09,12,988.72
2017,04,07,09,13,988.79
2017,04,07,09,14,988.86
2017,04,07,09,15,988.86
2017,04,07,09,16,988.86
2017,04,07,09,17,988.93
2017,04,07,09,18,988.86
2017,04,07,09,19,988.86
2017,04,07,09,20,988.86
2017,04,07,09,21,988.79
2017,04,07,09,22,988.79
2017,04,07,09,23,988.86
2017,04,07,09,24,988.86
2017,04,07,09,25,988.79
2017,04,07,09,26,988.89
2017,04,07,09,27,988.93
2017,04,07,09,28,988.89
2017,04,07,09,29,988.93
2017,04,07,09,30,988.96
2017,04,07,09,31,989.00
2017,04,07,09,32,989.00
2017,04,07,09,33,989.13
2017,04,07,09,34,989.13
2017,04,07,09,35,989.16
2017,04,07,09,36,989.23
2017,04,07,09,37,989.27
2017,04,07,09,38,989.30
2017,04,07,09,39,989.40
2017,04,07,09,40,989.27
2017,04,07,09,41,989.20
2017,04,07,09,42,989.13
2017,04,07,09,43,989.20
2017,04,07,09,44,989.16
2017,04,07,09,45,989.16
2017,04,07,09,46,989.23
2017,04,07,09,47,989.20
2017,04,07,09,48,989.06
2017,04,07,09,49,988.97
2017,04,07,09,50,989.00
2017,04,07,09,51,989.13
2017,04,07,09,52,989.23
2017,04,07,09,53,989.11
2017,04,07,09,54,989.30
2017,04,07,09,55,989.23
2017,04,07,09,56,989.20
2017,04,07,09,57,989.16
2017,04,07,09,58,989.16
2017,04,07,09,59,989.10
2017,04,07,10,00,989.10
2017,04,07,10,01,989.03
2017,04,07,10,02,989.03
2017,04,07,10,03,989.03
2017,04,07,10,04,989.03
2017,04,07,10,05,989.03
2017,04,07,10,06,989.03
2017,04,07,10,07,989.06
2017,04,07,10,08,989.06
2017,04,07,10,09,989.06
2017,04,07,10,10,989.06
2017,04,07,10,11,989.10
2017,04,07,10,12,989.10
2017,04,07,10,13,989.06
2017,04,07,10,14,989.06
2017,04,07,10,15,989.10
2017,04,07,10,16,989.06
2017,04,07,10,17,989.06
2017,04,07,10,18,989.10
2017,04,07,10,19,989.13
2017,04,07,10,20,989.13
2017,04,07,10,21,989.16
2017,04,07,10,22,989.20
2017,04,07,10,23,989.20
2017,04,07,10,24,989.23
2017,04,07,10,25,989.23
2017,04,07,10,26,989.27
2017,04,07,10,27,989.23
2017,04,07,10,28,989.27
2017,04,07,10,29,989.27
2017,04,07,10,30,989.33
2017,04,07,10,31,989.40
2017,04,07,10,32,989.40
2017,04,07,10,33,989.40
2017,04,07,10,34,989.37
2017,04,07,10,35,989.47
2017,04,07,10,36,989.50
2017,04,07,10,37,989.44
2017,04,07,10,38,989.60
2017,04,07,10,39,989.67
2017,04,07,10,40,989.74
2017,04,07,10,41,989.71
2017,04,07,10,42,989.81
2017,04,07,10,43,989.91
2017,04,07,10,44,989.88
2017,04,07,10,45,989.98
2017,04,07,10,46,990.04
2017,04,07,10,47,990.08
2017,04,07,10,48,990.18
2017,04,07,10,49,990.35
2017,04,07,10,50,990.42
2017,04,07,10,51,990.45
2017,04,07,10,52,990.49
2017,04,07,10,53,990.45
2017,04,07,10,54,990.45
2017,04,07,10,55,990.52
2017,04,07,10,56,990.55
2017,04,07,10,57,990.52
2017,04,07,10,58,990.52
2017,04,07,10,59,990.55
2017,04,07,11,00,990.63
2017,04,07,11,01,990.76
2017,04,07,11,02,990.79
2017,04,07,11,03,990.86
2017,04,07,11,04,990.82
2017,04,07,11,05,990.83
2017,04,07,11,06,990.93
2017,04,07,11,07,990.93
2017,04,07,11,08,991.03
2017,04,07,11,09,990.99
2017,04,07,11,10,991.13
2017,04,07,11,11,991.09
2017,04,07,11,12,991.13
2017,04,07,11,13,991.09
2017,04,07,11,14,991.06
2017,04,07,11,15,991.03
2017,04,07,11,16,991.16
2017,04,07,11,17,991.09
2017,04,07,11,18,990.99
2017,04,07,11,19,991.06
2017,04,07,11,20,991.03
2017,04,07,11,21,991.03
2017,04,07,11,22,990.99
2017,04,07,11,23,991.03
2017,04,07,11,24,991.13
2017,04,07,11,25,991.09
2017,04,07,11,26,991.06
2017,04,07,11,27,991.09
2017,04,07,11,28,990.99
2017,04,07,11,29,990.99
2017,04,07,11,30,990.96
2017,04,07,11,31,990.82
2017,04,07,11,32,990.86
2017,04,07,11,33,990.82
2017,04,07,11,34,990.93
2017,04,07,11,35,990.89
2017,04,07,11,36,990.86
2017,04,07,11,37,990.93
2017,04,07,11,38,990.89
2017,04,07,11,39,990.89
2017,04,07,11,40,990.86
2017,04,07,11,41,990.93
2017,04,07,11,42,990.86
2017,04,07,11,43,990.86
2017,04,07,11,44,990.86
2017,04,07,11,45,990.93
2017,04,07,11,46,990.89
2017,04,07,11,47,990.89
2017,04,07,11,48,990.89
2017,04,07,11,49,990.89
2017,04,07,11,50,990.89
2017,04,07,11,51,990.89
2017,04,07,11,52,990.93
2017,04,07,11,53,990.89
2017,04,07,11,54,990.96
2017,04,07,11,55,990.96
2017,04,07,11,56,990.96
2017,04,07,11,57,990.93
2017,04,07,11,58,990.93
2017,04,07,11,59,990.93
2017,04,07,12,00,990.93
2017,04,07,12,01,990.93
2017,04,07,12,02,990.93
2017,04,07,12,03,990.96
2017,04,07,12,04,991.06
2017,04,07,12,05,991.06
2017,04,07,12,06,991.06
2017,04,07,12,07,991.03
2017,04,07,12,08,991.09
2017,04,07,12,09,991.16
2017,04,07,12,10,991.06
2017,04,07,12,11,991.06
2017,04,07,12,12,991.03
2017,04,07,12,13,991.03
2017,04,07,12,14,990.96
2017,04,07,12,15,991.03
2017,04,07,12,16,991.13
2017,04,07,12,17,991.09
2017,04,07,12,18,991.23
2017,04,07,12,19,991.26
2017,04,07,12,20,991.26
2017,04,07,12,21,991.30
2017,04,07,12,22,991.37
2017,04,07,12,23,991.33
2017,04,07,12,24,991.37
2017,04,07,12,25,991.33
2017,04,07,12,26,991.33
2017,04,07,12,27,991.40
2017,04,07,12,28,991.37
2017,04,07,12,29,991.33
2017,04,07,12,30,991.37
2017,04,07,12,31,991.33
2017,04,07,12,32,991.33
2017,04,07,12,33,991.37
2017,04,07,12,34,991.37
2017,04,07,12,35,991.37
2017,04,07,12,36,991.33
2017,04,07,12,37,991.33
2017,04,07,12,38,991.37
2017,04,07,12,39,991.33
2017,04,07,12,40,991.47
2017,04,07,12,41,991.40
2017,04,07,12,42,991.43
2017,04,07,12,43,991.40
2017,04,07,12,44,991.50
2017,04,07,12,45,991.57
2017,04,07,12,46,991.53
2017,04,07,12,47,991.64
2017,04,07,12,48,991.60
2017,04,07,12,49,991.64
2017,04,07,12,50,991.60
2017,04,07,12,51,991.67
2017,04,07,12,52,991.67
2017,04,07,12,53,991.74
2017,04,07,12,54,991.74
2017,04,07,12,55,991.74
2017,04,07,12,56,991.77
2017,04,07,12,57,991.70
2017,04,07,12,58,991.67
2017,04,07,12,59,991.74
2017,04,07,13,00,991.74
2017,04,07,13,01,991.74
2017,04,07,13,02,991.70
2017,04,07,13,03,991.77
2017,04,07,13,04,991.70
2017,04,07,13,05,991.64
2017,04,07,13,06,991.67
2017,04,07,13,07,991.74
2017,04,07,13,08,991.70
2017,04,07,13,09,991.70
2017,04,07,13,10,991.74
2017,04,07,13,11,991.67
2017,04,07,13,12,991.77
2017,04,07,13,13,991.64
2017,04,07,13,14,991.64
2017,04,07,13,15,991.74
2017,04,07,13,16,991.57
2017,04,07,13,17,991.67
2017,04,07,13,18,991.66
2017,04,07,13,19,991.57
2017,04,07,13,20,991.64
2017,04,07,13,21,991.60
2017,04,07,13,22,991.67
2017,04,07,13,23,991.77
2017,04,07,13,24,991.51
2017,04,07,13,25,991.87
2017,04,07,13,26,991.77
2017,04,07,13,27,991.81
2017,04,07,13,28,991.74
2017,04,07,13,29,991.74
2017,04,07,13,30,991.70
2017,04,07,13,31,991.94
2017,04,07,13,32,991.70
2017,04,07,13,33,991.87
2017,04,07,13,34,991.74
2017,04,07,13,35,991.81
2017,04,07,13,36,991.81
2017,04,07,13,37,991.81
2017,04,07,13,38,991.87
2017,04,07,13,39,991.84
2017,04,07,13,40,991.94
2017,04,07,13,41,991.87
2017,04,07,13,42,991.84
2017,04,07,13,43,991.85
2017,04,07,13,44,992.01
2017,04,07,13,45,991.98
2017,04,07,13,46,991.94
2017,04,07,13,47,991.98
2017,04,07,13,48,992.04
2017,04,07,13,49,992.25
2017,04,07,13,50,992.11
2017,04,07,13,51,992.11
2017,04,07,13,52,992.21
2017,04,07,13,53,992.05
2017,04,07,13,54,992.21
2017,04,07,13,55,992.11
2017,04,07,13,56,992.21
2017,04,07,13,57,992.21
2017,04,07,13,58,992.11
2017,04,07,13,59,992.14
2017,04,07,14,00,992.11
2017,04,07,14,01,992.14
2017,04,07,14,02,992.25
2017,04,07,14,03,992.25
2017,04,07,14,04,992.21
2017,04,07,14,05,992.25
2017,04,07,14,06,992.21
2017,04,07,14,07,992.31
2017,04,07,14,08,992.38
2017,04,07,14,09,992.38
2017,04,07,14,10,992.31
2017,04,07,14,11,992.38
2017,04,07,14,12,992.31
2017,04,07,14,13,992.39
2017,04,07,14,14,992.48
2017,04,07,14,15,992.45
2017,04,07,14,16,992.55
2017,04,07,14,17,992.52
2017,04,07,14,18,992.58
2017,04,07,14,19,992.65
2017,04,07,14,20,992.72
2017,04,07,14,21,992.55
2017,04,07,14,22,992.52
2017,04,07,14,23,992.65
2017,04,07,14,24,992.62
2017,04,07,14,25,992.55
2017,04,07,14,26,992.62
2017,04,07,14,27,992.69
2017,04,07,14,28,992.69
2017,04,07,14,29,992.69
2017,04,07,14,30,992.62
2017,04,07,14,31,992.79
2017,04,07,14,32,992.79
2017,04,07,14,33,992.86
2017,04,07,14,34,992.76
2017,04,07,14,35,992.86
2017,04,07,14,36,992.86
2017,04,07,14,37,992.89
2017,04,07,14,38,992.89
2017,04,07,14,39,992.82
2017,04,07,14,40,992.96
2017,04,07,14,41,992.89
2017,04,07,14,42,992.89
2017,04,07,14,43,992.92
2017,04,07,14,44,992.79
2017,04,07,14,45,992.82
2017,04,07,14,46,992.89
2017,04,07,14,47,992.89
2017,04,07,14,48,992.89
2017,04,07,14,49,992.86
2017,04,07,14,50,992.96
2017,04,07,14,51,992.89
2017,04,07,14,52,992.86
2017,04,07,14,53,992.98
2017,04,07,14,54,992.99
2017,04,07,14,55,992.99
2017,04,07,14,56,993.06
2017,04,07,14,57,993.00
2017,04,07,14,58,993.16
2017,04,07,14,59,993.09
2017,04,07,15,00,993.13
2017,04,07,15,01,993.19
2017,04,07,15,02,993.23
2017,04,07,15,03,993.09
2017,04,07,15,04,993.03
2017,04,07,15,05,992.92
2017,04,07,15,06,993.16
2017,04,07,15,07,993.07
2017,04,07,15,08,993.35
2017,04,07,15,09,993.16
2017,04,07,15,10,993.19
2017,04,07,15,11,993.17
2017,04,07,15,12,993.33
2017,04,07,15,13,993.33
2017,04,07,15,14,993.23
2017,04,07,15,15,993.40
2017,04,07,15,16,993.43
2017,04,07,15,17,993.36
2017,04,07,15,18,993.47
2017,04,07,15,19,993.44
2017,04,07,15,20,993.63
2017,04,07,15,21,993.62
2017,04,07,15,22,993.50
2017,04,07,15,23,993.70
2017,04,07,15,24,993.57
2017,04,07,15,25,993.74
2017,04,07,15,26,993.60
2017,04,07,15,27,993.57
2017,04,07,15,28,993.79
2017,04,07,15,29,993.74
2017,04,07,15,30,993.74
2017,04,07,15,31,993.71
2017,04,07,15,32,993.84
2017,04,07,15,33,993.77
2017,04,07,15,34,993.70
2017,04,07,15,35,993.67
2017,04,07,15,36,993.67
2017,04,07,15,37,993.64
2017,04,07,15,38,993.74
2017,04,07,15,39,993.67
2017,04,07,15,40,993.84
2017,04,07,15,41,993.80
2017,04,07,15,42,993.84
2017,04,07,15,43,993.91
2017,04,07,15,44,993.91
2017,04,07,15,45,993.94
2017,04,07,15,46,993.91
2017,04,07,15,47,993.97
2017,04,07,15,48,993.91
2017,04,07,15,49,993.91
2017,04,07,15,50,994.01
2017,04,07,15,51,993.91
2017,04,07,15,52,994.01
2017,04,07,15,53,993.97
2017,04,07,15,54,994.01
2017,04,07,15,55,994.01
2017,04,07,15,56,994.02
2017,04,07,15,57,994.18
2017,04,07,15,58,994.18
2017,04,07,15,59,994.21
2017,04,07,16,00,994.11
2017,04,07,16,01,994.24
2017,04,07,16,02,994.21
2017,04,07,16,03,994.28
2017,04,07,16,04,994.31
2017,04,07,16,05,994.24
2017,04,07,16,06,994.31
2017,04,07,16,07,994.21
2017,04,07,16,08,994.35
2017,04,07,16,09,994.21
2017,04,07,16,10,994.21
2017,04,07,16,11,994.35
2017,04,07,16,12,994.35
2017,04,07,16,13,994.35
2017,04,07,16,14,994.38
2017,04,07,16,15,994.28
2017,04,07,16,16,994.41
2017,04,07,16,17,994.41
2017,04,07,16,18,994.38
2017,04,07,16,19,994.35
2017,04,07,16,20,994.41
2017,04,07,16,21,994.35
2017,04,07,16,22,994.45
2017,04,07,16,23,994.31
2017,04,07,16,24,994.28
2017,04,07,16,25,994.31
2017,04,07,16,26,994.31
2017,04,07,16,27,994.31
2017,04,07,16,28,994.35
2017,04,07,16,29,994.24
2017,04,07,16,30,994.21
2017,04,07,16,31,994.24
2017,04,07,16,32,994.28
2017,04,07,16,33,994.14
2017,04,07,16,34,994.18
2017,04,07,16,35,994.18
2017,04,07,16,36,994.20